This demonstration page uses our WeatherBlox Daily Observations layout. Learn more.

Left ArrowRight Arrow

Hourly Observations for April 1, 2018

Temp ( °F °C ) Dew Point ( °F °C ) Humidity (%) Winds ( mph kmh ) Pressure ( in mb ) Visibility ( mi km ) Precip ( " mm )
12:33 am 00:33 Cloudy with Light Snow 25 -4 18 -8 74 74 N 15 24 30.50 1033 3 4 0.00 0.00
12:47 am 00:47 Cloudy with Light Snow 23 -5 19 -7 86 86 N 14 22 30.48 1032 3 4 0.00 0.03
12:56 am 00:56 Cloudy with Light Snow 23 -5 20 -6.7 88 88 N 16 26 30.45 1031 3 4 0.00 0.03
1:13 am 01:13 Cloudy with Light Snow 21 -6 19 -7 93 93 N 10 17 30.50 1033 2 3 0.00 0.00
1:37 am 01:37 Cloudy with Light Snow 21 -6 19 -7 93 93 NNE 14 22 30.50 1033 1 2 0.00 0.03
1:48 am 01:48 Cloudy with Light Snow 21 -6 19 -7 93 93 N 14 22 30.50 1033 1 2 0.00 0.03
1:56 am 01:56 Cloudy with Light Snow 22 -5.6 20 -6.7 92 92 N 10 17 30.43 1030 2 2 0.00 0.03
2:11 am 02:11 Cloudy with Light Snow 21 -6 19 -7 93 93 N 9 15 30.50 1033 2 2 0.00 0.00
2:37 am 02:37 Cloudy with Light Snow 21 -6 19 -7 93 93 NNE 9 15 30.50 1033 3 4 0.00 0.00
2:45 am 02:45 Cloudy with Light Snow 21 -6 19 -7 93 93 N 10 17 30.48 1032 3 4 0.00 0.00
2:52 am 02:52 Cloudy with Light Snow 21 -6 19 -7 93 93 NNE 10 17 30.48 1032 5 8 0.00 0.03
2:56 am 02:56 Cloudy with Light Snow 22 -5.6 20 -6.7 92 92 NNE 9 15 30.40 1030 7 11 0.00 0.03
3:24 am 03:24 Cloudy with Light Snow 21 -6 19 -7 93 93 NNE 10 17 30.48 1032 4 6 0.00 0.03
3:48 am 03:48 Cloudy with Light Snow 21 -6 19 -7 93 93 NE 8 13 30.48 1032 6 10 0.00 0.03
3:56 am 03:56 Cloudy with Light Snow 22 -5.6 19 -7.2 89 89 NE 7 11 30.38 1029 6 10 0.00 0.03
4:12 am 04:12 Cloudy with Light Snow 21 -6 19 -7 93 93 NE 7 11 30.48 1032 4 6 0.00 0.03
4:56 am 04:56 Cloudy with Light Snow 21 -6.1 19 -7.2 92 92 NE 7 11 30.36 1028 5 8 0.01 0.25
5:56 am 05:56 Cloudy with Light Snow 21 -6.1 19 -7.2 92 92 NE 7 11 30.37 1028 3 5 0.00 0.03
6:25 am 06:25 Cloudy with Light Snow 21 -6 19 -7 93 93 NE 8 13 30.42 1030 6 10 0.00 0.00
6:48 am 06:48 Cloudy with Light Snow 21 -6 19 -7 93 93 ENE 5 7 30.42 1030 3 4 0.00 0.03
6:56 am 06:56 Cloudy with Light Snow 21 -6.1 19 -7.2 92 92 ENE 6 9 30.38 1029 2 3 0.00 0.03
7:16 am 07:16 Cloudy with Light Snow 21 -6 19 -7 93 93 ENE 6 9 30.42 1030 2 2 0.00 0.03
7:26 am 07:26 Cloudy with Light Snow 21 -6 19 -7 93 93 ENE 6 9 30.42 1030 1 1 0.00 0.03
7:30 am 07:30 Cloudy with Snow 21 -6 19 -7 93 93 ENE 6 9 30.42 1030 1 1 0.00 0.03
7:42 am 07:42 Cloudy with Heavy Snow 21 -6 19 -7 93 93 E 5 7 30.48 1032 0 0 0.00 0.03
7:52 am 07:52 Cloudy with Snow 21 -6 19 -7 93 93 ENE 6 9 30.48 1032 1 1 0.00 0.03
7:56 am 07:56 Cloudy with Snow 21 -6.1 19 -7.2 92 92 ENE 5 7 30.39 1029 1 1 0.00 0.03
8:12 am 08:12 Cloudy with Light Snow 21 -6 19 -7 93 93 ENE 5 7 30.48 1032 1 1 0.00 0.03
8:33 am 08:33 Cloudy with Snow 21 -6 19 -7 93 93 ENE 7 11 30.48 1032 1 1 0.00 0.00
8:51 am 08:51 Cloudy with Light Snow 21 -6 19 -7 93 93 ENE 7 11 30.42 1030 1 1 0.00 0.00
8:56 am 08:56 Cloudy with Snow 21 -6.1 19 -7.2 92 92 ENE 7 11 30.38 1029 1 1 0.01 0.25
9:14 am 09:14 Cloudy with Light Snow 21 -6 18 -8 86 86 ENE 10 17 30.42 1030 1 2 0.00 0.03
9:32 am 09:32 Cloudy with Light Snow 21 -6 19 -7 93 93 ENE 5 7 30.42 1030 1 1 0.00 0.03
9:56 am 09:56 Cloudy with Light Snow 22 -5.6 18 -7.8 85 85 E 7 11 30.39 1029 1 1 0.00 0.03
10:05 am 10:05 Cloudy with Snow 21 -6 19 -7 93 93 E 6 9 30.42 1030 1 1 0.00 0.03
10:44 am 10:44 Cloudy with Light Snow 25 -4 19 -7 80 80 ESE 5 7 30.42 1030 1 1 0.00 0.03
10:56 am 10:56 Cloudy with Light Snow 25 -3.9 19 -7.2 78 78 ESE 8 13 30.38 1029 1 1 0.00 0.03
11:10 am 11:10 Cloudy with Light Snow 25 -4 18 -8 74 74 E 8 13 30.45 1031 1 2 0.00 0.03
11:56 am 11:56 Cloudy with Light Snow 27 -2.8 19 -7.2 72 72 E 7 11 30.38 1029 2 3 0.02 0.51
12:00 pm 12:00 Cloudy with Light Snow 27 -3 18 -8 69 69 E 6 9 30.42 1030 3 5 0.00 0.03
12:25 pm 12:25 Partly Cloudy 32 0 19 -7 60 60 E 3 6 30.39 1029 9 14 0.00 0.03
12:56 pm 12:56 Mostly Cloudy 33 0.6 18 -7.8 54 54 ENE 3 6 30.36 1028 10 16 0.05 1.27
1:18 pm 13:18 Cloudy with Light Snow 23 -5 18 -8 80 80 NE 3 6 30.42 1030 10 16 0.02 0.51
1:37 pm 13:37 Cloudy with Light Snow 23 -5 18 -8 80 80 Calm 30.42 1030 10 16 0.05 1.27
1:56 pm 13:56 Cloudy 24 -4.4 18 -7.8 77 77 Calm 30.35 1028 10 16 0.05 1.27
2:56 pm 14:56 Mostly Sunny 25 -3.9 18 -7.8 75 75 SE 3 6 30.29 1026 10 16 0.00 0.00
3:15 pm 15:15 Mostly Cloudy 25 -4 19 -7 80 80 E 3 6 30.36 1028 10 16 0.00 0.00
3:56 pm 15:56 Partly Cloudy 26 -3.3 19 -7.2 75 75 ESE 3 6 30.26 1025 10 16 0.00 0.00
4:07 pm 16:07 Mostly Cloudy 27 -3 18 -8 69 69 VRB 5 7 30.30 1026 10 16 0.00 0.00
4:56 pm 16:56 Cloudy 26 -3.3 19 -7.2 75 75 ESE 6 9 30.24 1024 10 16 0.00 0.00
5:34 pm 17:34 Partly Cloudy 27 -3 19 -7 74 74 S 5 7 30.27 1025 10 16 0.00 0.00
5:56 pm 17:56 Sunny 25 -3.9 19 -7.2 78 78 S 6 9 30.22 1023 10 16 0.00 0.00
6:56 pm 18:56 Sunny 25 -3.9 19 -7.2 78 78 S 9 15 30.19 1022 10 16 0.00 0.00
7:56 pm 19:56 Sunny 23 -5 19 -7.2 85 85 SSE 9 15 30.16 1021 10 16 0.00 0.00
8:56 pm 20:56 Clear 22 -5.6 18 -7.8 85 85 SE 9 15 30.14 1021 10 16 0.00 0.00
9:56 pm 21:56 Clear 21 -6.1 17 -8.3 85 85 SSE 9 15 30.16 1021 10 16 0.00 0.00
10:56 pm 22:56 Clear 20 -6.7 17 -8.3 89 89 SSE 10 17 30.15 1021 10 16 0.00 0.00
11:56 pm 23:56 Clear 20 -6.7 18 -7.8 92 92 SSE 10 17 30.11 1020 10 16 0.00 0.00

Powered by AerisWeather